sat.trackr.live / text

‹ back to catalog

YAOGAN-31 02B

NORAD 47533 · 2021-007B

PAYLOAD ACTIVE UNKNOWN

§ Identity

Operator
Country
PRC
Launch date
2021-01-29
Launch site
JSC
Launch vehicle
Mass (kg)
RCS (m²)

External: N2YO · Heavens-Above · Gunter

§ Orbital elements

Epoch: 2026-05-25T05:26:44.495232Z

Period
107.03 min
Inclination
63.4021°
Eccentricity
0.0174452
Mean motion
13.45446609 rev/d
Perigee alt
958.8 km
Apogee alt
1,219.3 km
Semi-major
7,467.2 km
B*
8.4690e-5
RAAN
201.1326°
Arg perigee
0.5524°
Mean anomaly
359.5663°
Rev number
26,114

§ Raw data

YAOGAN-31 02B1 47533U 21007B   26145.22690388 -.00000035  00000+0  84690-4 0  99972 47533  63.4021 201.1326 0174452   0.5524 359.5663 13.45446609261147

JSON: /api/v1/satellites/47533 · /tle

For live sub-satellite position, see the globe view (requires WebGL).

§ Visibility from observer

Set your observer location to see the next 7 days of passes ≥ 10°. The values pass through the URL so the page stays shareable.

No JS? Fill the form by hand. The geolocation button needs JavaScript.